Dewpoint
71 68 70 68 59 50 32 38 38 39 37 48 50 48 48 50 46 51 63 64 64 65 68 72 75 75 75 75 76 75 75 75 75 75 75 75 75 74 74 74 74 74 74 74 74 74 74 74 74
67 69 69 65 53 28 31 38 39 45 45 49 50 50 48 50 57 62 63 65 65 64 67 68 75 75 76 76 76 76 75 74 74 74 74 74 74 74 73 74 74 74 74 73 74 74 73 73 73
67 69 64 58 42 33 34 38 44 49 50 47 47 50 50 54 61 60 63 65 65 66 66 70 76 75 75 76 76 76 74 74 75 74 75 74 74 74 73 74 74 74 73 72 73 72 72 72 73
67 67 64 52 37 41 38 39 46 49 52 51 47 48 55 61 61 61 65 65 66 66 65 74 76 76 75 75 75 75 75 73 74 74 74 74 74 74 74 74 74 74 73 71 72 73 72 73 74
65 62 50 39 37 38 41 45 47 46 48 49 47 48 53 61 62 64 65 65 66 66 66 72 76 76 76 75 75 74 75 74 74 74 74 74 74 73 73 74 74 74 73 72 73 73 73 72 72
61 60 42 38 37 38 41 42 47 47 50 52 48 49 54 63 64 65 65 66 65 65 66 71 76 77 76 75 75 75 75 74 74 74 74 74 75 73 74 74 74 73 72 72 74 72 73 73 73
61 56 41 36 34 36 37 41 42 44 48 48 50 47 56 61 65 66 66 66 66 66 67 71 73 75 76 75 75 75 75 75 74 74 74 74 74 74 74 74 74 74 72 72 73 74 74 73 73
61 57 41 36 31 32 35 35 41 41 46 53 52 46 50 59 65 67 68 67 67 66 67 69 72 73 74 74 76 75 76 75 75 75 75 74 74 74 74 74 74 74 73 72 73 74 74 73 73
62 52 40 35 32 33 33 32 33 45 46 54 54 51 52 60 65 66 68 68 67 67 68 68 69 72 74 74 73 75 75 75 75 75 74 74 71 72 73 73 74 74 73 72 72 73 73 73 72
57 46 41 38 38 38 37 34 29 35 46 52 54 55 56 63 64 63 65 64 65 66 66 67 68 70 72 69 74 73 72 74 71 74 74 70 70 70 69 72 74 74 74 72 72 72 73 72 66
50 47 43 43 43 41 37 30 29 30 40 48 52 57 59 61 63 61 62 62 64 65 66 67 68 70 70 69 69 70 71 71 72 75 72 71 70 71 68 70 70 71 73 70 70 71 67 66 63
47 44 46 44 43 41 35 31 29 32 37 45 49 56 60 59 60 60 61 61 62 65 65 67 69 71 70 69 69 69 68 70 73 71 74 72 70 70 70 68 72 74 77 73 70 65 65 65 66
39 39 37 40 39 39 32 30 32 34 35 45 50 57 59 58 58 60 60 61 63 65 66 68 70 72 72 72 70 70 68 69 70 71 73 71 69 71 70 70 69 69 70 77 74 70 66 68 67
27 28 32 36 35 37 33 31 31 34 39 44 52 55 57 58 56 59 61 61 63 65 67 68 71 72 73 73 73 72 70 69 70 69 70 74 71 73 70 70 68 73 72 76 70 74 68 67 65
31 29 24 22 25 30 30 29 29 33 41 44 50 53 56 58 57 58 61 63 62 64 66 69 71 72 73 74 73 72 70 70 70 68 73 74 74 75 76 70 68 69 72 76 73 74 70 68 66
27 28 25 17 20 24 25 27 30 28 30 37 34 42 51 57 57 58 61 64 64 65 68 70 69 71 72 73 72 70 69 69 69 68 70 74 75 75 74 73 68 68 70 74 71 74 70 67 66
21 19 18 22 21 24 24 24 27 25 23 26 26 31 45 54 59 60 60 62 65 67 69 71 72 70 72 73 72 72 73 70 68 69 69 73 73 73 73 72 68 72 69 69 72 74 70 67 66
17 18 18 20 21 22 22 20 21 23 23 23 25 27 39 52 58 60 61 61 64 68 70 72 72 73 74 72 73 70 68 69 69 70 70 73 73 74 73 77 74 71 68 67 67 70 69 68 67
19 19 19 20 23 25 25 25 22 23 19 20 25 27 36 52 56 60 61 63 64 67 70 72 73 75 73 71 70 68 66 68 69 70 73 74 73 74 76 71 75 74 70 69 71 71 71 69 69
21 20 17 20 24 27 25 22 22 24 23 20 22 25 32 48 54 60 62 63 64 67 70 73 74 75 75 72 73 70 69 68 69 70 74 73 73 74 73 74 74 74 76 71 71 73 69 67 68
18 20 21 19 22 25 26 26 24 21 20 21 22 25 32 48 54 59 61 64 64 66 70 73 75 76 76 76 73 73 72 71 70 72 72 74 73 74 75 74 73 74 72 76 72 73 72 68 70
20 18 19 23 22 21 22 20 27 23 22 21 22 20 28 45 54 58 61 63 64 65 69 74 76 77 76 77 75 77 70 69 69 71 71 72 74 74 74 74 73 74 76 75 76 75 75 75 73
19 19 20 25 25 25 23 23 24 22 22 21 20 20 24 40 50 55 59 62 63 65 67 73 76 77 78 78 77 73 74 69 69 73 73 75 75 74 72 73 73 73 72 74 74 73 73 74 74
21 23 27 27 23 21 25 21 21 20 22 22 21 21 20 20 36 51 57 62 64 63 65 69 75 78 78 77 76 78 77 74 70 72 72 77 75 74 74 73 74 74 74 74 75 73 73 72 74
18 21 19 17 15 16 22 21 22 21 20 22 25 25 23 24 27 38 51 58 63 64 66 67 74 76 75 75 75 75 75 76 75 74 78 71 73 73 75 75 74 75 75 75 75 75 72 72 73
18 19 16 17 17 24 30 21 20 23 21 25 25 27 32 31 29 35 34 47 60 63 68 68 73 75 75 74 75 76 76 73 72 74 74 68 68 67 70 74 74 74 73 73 75 75 71 72 74
21 18 18 18 21 17 23 28 24 21 23 28 35 45 52 57 57 56 50 43 55 62 65 68 72 74 74 74 75 76 76 76 73 75 75 70 71 66 70 73 72 74 73 73 74 75 71 73 74
18 20 18 19 23 21 20 24 22 27 26 31 40 51 60 62 61 57 53 51 55 61 65 67 70 73 73 73 74 75 75 76 75 76 74 71 70 72 71 73 73 73 73 73 73 75 72 72 75
20 18 19 15 22 23 17 18 27 29 30 40 49 59 63 64 63 60 58 59 61 62 64 67 69 72 73 74 74 75 74 75 76 74 72 70 71 73 73 73 72 72 72 72 73 73 71 70 71
26 26 25 19 25 22 21 18 20 32 37 54 56 62 66 65 66 65 63 64 63 63 66 67 70 72 73 74 75 74 74 75 74 71 70 70 72 73 73 72 71 70 70 71 71 70 69 69 69
Lifted_Index
-3 -3 -3 -3 -3 -1 1 1 1 1 1 -0 -1 -1 -1 -1 -2 -3 -4 -4 -4 -5 -5 -6 -7 -7 -7 -7 -7 -7 -6 -6 -6 -6 -6 -6 -6 -5 -5 -5 -5 -5 -5 -4 -4 -4 -3 -3 -3
-3 -3 -4 -3 -2 -0 1 1 0 0 0 -0 -1 -1 -1 -2 -3 -4 -4 -4 -4 -4 -5 -6 -6 -7 -7 -7 -7 -7 -6 -6 -6 -6 -6 -5 -5 -5 -5 -5 -5 -5 -4 -4 -4 -3 -3 -3 -3
-3 -4 -4 -3 -1 0 1 0 -0 -1 -1 -0 -1 -1 -2 -3 -4 -4 -4 -4 -4 -4 -5 -5 -6 -7 -7 -7 -7 -7 -6 -6 -6 -6 -6 -5 -5 -5 -5 -5 -5 -5 -4 -4 -3 -3 -2 -2 -2
-4 -4 -4 -2 -0 1 0 -0 -1 -1 -1 -1 -1 -1 -2 -3 -4 -4 -4 -4 -4 -4 -5 -5 -6 -6 -6 -7 -7 -7 -6 -6 -5 -6 -5 -5 -5 -5 -5 -5 -5 -5 -4 -3 -3 -3 -3 -3 -3
-4 -4 -3 -2 -0 1 0 -1 -2 -2 -2 -1 -1 -1 -2 -4 -4 -4 -4 -4 -4 -4 -5 -6 -6 -6 -6 -6 -6 -7 -6 -6 -5 -5 -5 -5 -5 -5 -5 -5 -5 -5 -4 -3 -3 -3 -3 -3 -3
-5 -4 -3 -1 0 1 1 -0 -2 -2 -2 -2 -1 -1 -3 -4 -4 -4 -4 -4 -4 -4 -5 -6 -7 -7 -6 -6 -6 -7 -7 -6 -6 -5 -5 -5 -5 -5 -5 -5 -5 -4 -4 -4 -4 -4 -3 -3 -3
-5 -4 -2 -0 1 1 1 0 -1 -2 -3 -3 -2 -2 -2 -4 -4 -5 -4 -4 -4 -4 -5 -6 -7 -7 -7 -6 -6 -7 -7 -6 -6 -6 -6 -5 -5 -5 -5 -5 -5 -4 -4 -4 -4 -4 -4 -3 -3
-5 -4 -2 0 1 2 2 1 0 -1 -3 -3 -3 -2 -3 -4 -5 -5 -5 -5 -4 -4 -5 -6 -6 -7 -7 -7 -6 -7 -7 -7 -7 -6 -6 -6 -5 -5 -5 -5 -5 -5 -4 -4 -4 -4 -4 -3 -3
-5 -4 -2 -0 1 1 2 2 1 -1 -2 -4 -4 -3 -3 -4 -5 -5 -5 -5 -5 -5 -5 -5 -6 -6 -7 -6 -6 -7 -7 -7 -6 -6 -6 -6 -5 -5 -5 -5 -5 -5 -4 -4 -4 -4 -4 -3 -3
-4 -3 -2 -1 -0 1 1 2 2 0 -2 -4 -4 -4 -4 -5 -5 -5 -5 -5 -5 -5 -5 -5 -5 -6 -6 -6 -6 -6 -6 -6 -6 -6 -6 -5 -5 -5 -4 -4 -4 -4 -4 -4 -3 -3 -3 -3 -2
-2 -2 -2 -1 -1 -0 1 2 2 1 -1 -3 -4 -5 -5 -5 -5 -5 -4 -4 -4 -4 -5 -5 -5 -5 -5 -5 -5 -6 -6 -6 -6 -6 -5 -5 -4 -4 -4 -4 -4 -4 -4 -4 -3 -3 -2 -2 -1
-0 -0 -1 -1 -1 -0 1 2 2 1 -0 -2 -4 -4 -5 -5 -5 -4 -4 -4 -4 -4 -5 -5 -5 -5 -5 -5 -5 -5 -5 -5 -6 -6 -5 -5 -4 -4 -4 -4 -4 -4 -4 -4 -3 -3 -2 -1 -1
3 2 1 0 0 0 1 2 2 1 -0 -2 -4 -5 -5 -5 -5 -4 -4 -4 -4 -5 -5 -5 -5 -5 -5 -5 -5 -5 -5 -5 -6 -6 -6 -5 -5 -4 -4 -3 -3 -3 -4 -4 -4 -3 -2 -2 -1
5 4 3 2 1 1 1 2 1 1 -0 -2 -4 -5 -5 -5 -5 -5 -5 -4 -4 -5 -5 -5 -6 -6 -5 -5 -5 -5 -5 -5 -5 -5 -5 -5 -5 -4 -4 -3 -3 -3 -4 -4 -4 -4 -3 -2 -2
6 5 4 3 2 2 2 2 1 1 0 -1 -2 -4 -5 -5 -5 -4 -5 -5 -4 -5 -5 -5 -6 -6 -5 -5 -5 -5 -4 -4 -5 -5 -5 -5 -5 -5 -4 -3 -3 -3 -4 -4 -4 -4 -4 -3 -2
6 5 4 3 2 2 2 2 1 1 1 1 0 -1 -3 -4 -5 -4 -5 -5 -5 -5 -5 -6 -6 -6 -6 -5 -5 -5 -4 -4 -4 -4 -5 -5 -5 -5 -4 -4 -3 -3 -4 -4 -4 -4 -4 -3 -3
5 4 3 3 2 3 3 2 2 2 2 3 2 1 -1 -4 -5 -4 -4 -5 -5 -6 -6 -6 -6 -6 -6 -6 -5 -5 -4 -4 -4 -4 -5 -5 -5 -5 -5 -4 -4 -3 -3 -4 -4 -4 -4 -3 -3
4 3 2 2 2 3 3 3 3 3 3 3 3 2 -0 -3 -5 -5 -5 -5 -5 -6 -6 -7 -7 -6 -6 -6 -5 -5 -4 -4 -4 -5 -5 -5 -5 -5 -5 -5 -4 -4 -3 -3 -3 -4 -4 -3 -3
4 3 2 2 2 3 3 3 3 3 3 3 2 2 1 -2 -4 -5 -5 -5 -5 -6 -7 -7 -7 -7 -7 -6 -6 -5 -4 -4 -5 -5 -5 -5 -5 -6 -6 -5 -5 -4 -4 -3 -3 -3 -3 -3 -3
5 4 2 2 2 2 2 2 3 3 3 2 2 2 1 -2 -4 -5 -5 -5 -5 -6 -6 -7 -8 -8 -8 -7 -7 -6 -5 -5 -6 -6 -6 -6 -6 -6 -6 -5 -5 -4 -4 -4 -4 -4 -3 -3 -3
6 4 2 1 1 1 1 1 2 2 2 2 2 2 1 -2 -4 -5 -5 -5 -5 -6 -6 -7 -8 -8 -8 -8 -7 -7 -6 -6 -6 -7 -7 -7 -6 -6 -6 -6 -5 -5 -4 -4 -4 -4 -4 -3 -3
5 3 2 1 -0 -0 0 0 0 1 1 2 1 1 0 -1 -3 -5 -5 -5 -5 -6 -6 -7 -8 -9 -9 -8 -8 -7 -7 -7 -7 -7 -7 -7 -7 -6 -6 -6 -5 -5 -5 -5 -5 -5 -4 -4 -4
4 2 1 -0 -0 -0 -0 -0 -0 -0 0 1 0 0 0 -1 -2 -4 -5 -5 -5 -6 -6 -7 -9 -9 -9 -9 -8 -8 -8 -7 -7 -7 -7 -7 -6 -6 -6 -6 -6 -5 -5 -5 -5 -5 -4 -4 -4
2 1 -0 -1 -1 -0 -0 -0 -0 -0 -0 -0 -0 -0 -0 -0 -1 -2 -4 -5 -5 -6 -6 -7 -8 -9 -9 -9 -8 -8 -8 -8 -8 -7 -7 -6 -5 -5 -5 -6 -6 -6 -6 -5 -5 -5 -4 -4 -4
1 0 -0 -1 -0 -0 -0 -0 -0 -0 -0 -0 0 0 0 1 1 -0 -2 -3 -5 -6 -6 -7 -8 -9 -9 -8 -8 -8 -8 -8 -8 -8 -7 -5 -4 -4 -5 -6 -6 -6 -6 -5 -5 -4 -4 -4 -4
0 -0 -0 -0 -0 -0 -0 -0 -0 -0 -0 0 1 0 -1 -1 -0 -0 -0 -2 -4 -5 -6 -6 -7 -8 -8 -8 -8 -8 -8 -9 -9 -8 -7 -5 -4 -3 -5 -6 -6 -6 -6 -5 -5 -4 -4 -4 -3
0 0 -0 -0 -0 -0 0 0 -0 -0 -0 0 -0 -2 -4 -4 -4 -2 -1 -1 -3 -4 -5 -6 -7 -8 -8 -8 -8 -8 -9 -9 -9 -8 -8 -6 -4 -4 -5 -6 -6 -6 -5 -5 -5 -5 -4 -4 -4
0 0 -0 -0 -0 -0 0 0 -0 -0 -0 -1 -2 -5 -7 -7 -6 -4 -3 -2 -3 -4 -5 -6 -7 -8 -8 -8 -8 -8 -9 -9 -9 -8 -7 -6 -5 -5 -6 -6 -6 -6 -5 -5 -5 -4 -4 -4 -4
-0 -0 -0 -0 -0 -0 -0 -0 -0 -0 -1 -2 -5 -7 -8 -8 -7 -5 -4 -4 -4 -5 -5 -6 -7 -8 -8 -9 -9 -9 -9 -9 -9 -8 -7 -6 -6 -7 -7 -6 -6 -5 -5 -5 -4 -4 -4 -4 -4
-1 -0 -0 -0 -0 -0 -0 -0 -0 -0 -2 -4 -6 -8 -9 -8 -7 -6 -5 -5 -5 -5 -6 -7 -7 -8 -9 -9 -9 -9 -9 -10 -9 -8 -6 -6 -7 -7 -7 -6 -6 -5 -5 -4 -4 -4 -3 -3 -3